Regional Weather Roundup
Issued by NWS

Home | Current Version | Previous Version | Text Only | Print | Product List | Glossary Off
Versions: 1 2 3 4 5 6 7 8 9 10 11 12 13 14 15 16 17 18 19 20 21 22 23 24 25 26 27 28 29 30 31 32 33 34 35 36 37 38 39 40 41 42 43 44 45 46 47 48 49 50

000
ASUS43 KLOT 012100
RWRIL

ILLINOIS REGIONAL WEATHER ROUNDUP
NATIONAL WEATHER SERVICE CHICAGO/ROMEOVILLE IL
400 PM CDT WED APR 01 2015

NOTE: "FAIR" INDICATES FEW OR NO CLOUDS BELOW 12,000 FEET WITH NO
SIGNIFICANT WEATHER AND/OR OBSTRUCTIONS TO VISIBILITY.

* THESE STATIONS ARE NOT UNDER NWS QUALITY CONTROL. THEY ALSO MAY NOT
  REPORT WEATHER SUCH AS PRECIPITATION OR FOG.

ILZ001-002-007-009-015-016-024-012200-
NORTHWEST ILLINOIS

CITY           SKY/WX    TMP DP  RH WIND       PRES   REMARKS
MOLINE         SUNNY     79  31  17 S23G31    29.81F
$$

ILZ003-004-008-010-011-017-018-012200-
NORTH CENTRAL ILLINOIS

CITY           SKY/WX    TMP DP  RH WIND       PRES   REMARKS
ROCKFORD       NOT AVBL
$$

ILZ005-006-012>014-019>023-012200-
NORTHEAST ILLINOIS

CITY           SKY/WX    TMP DP  RH WIND       PRES   REMARKS
CHICAGO-OHARE  MOSUNNY   72  36  26 S20       29.90F
CHICAGO-MIDWAY NOT AVBL
AURORA         SUNNY     76  36  23 S20G26    29.90F
WAUKEGAN       NOT AVBL
DUPAGE AIRPORT SUNNY     73  36  25 S15G26    29.90F
WHEELING       SUNNY     73  34  23 SW14G26   29.91F
NORTHERLY ISL    N/A     51  37  58 CALM        N/A
$$

LMZ740>746-012200-
SOUTHERN LAKE MICHIGAN

STATION/POSITION SKY/WX   TEMP    WIND        PRES    VSBY  WAVE
                          AIR SEA DIR/SP/G                  HT/PER
                          (F)     (DEG/KT/KT) (MB)    (MI)  (FT/S)
HARRISON CRIB              44     170/  5/  9   N/A
BURNHAM HARBOR             50     140/  3/  4   N/A
CALUMET HARBOR             69     190/ 12/ 19 1013.2F
BURNS HARBOR               68     190/ 11/ 21 1014.9F
MICHIGAN CITY              49      30/ 10/ 12   N/A
$$

ILZ025>027-034>036-040-047-049-050-058-095>099-012200-
WEST-CENTRAL ILLINOIS

CITY           SKY/WX    TMP DP  RH WIND       PRES   REMARKS
$$

ILZ028>032-037-038-041>044-048-051>054-059>061-012200-
CENTRAL ILLINOIS

CITY           SKY/WX    TMP DP  RH WIND       PRES   REMARKS
PEORIA         NOT AVBL
SPRINGFIELD    SUNNY     76  42  29 S22G29    29.92F
TAYLORVILLE    NOT AVBL
$$

ILZ033-039-045-046-055>057-062-063-012200-
EAST-CENTRAL ILLINOIS

CITY           SKY/WX    TMP DP  RH WIND       PRES   REMARKS
CHAMPAIGN      SUNNY     73  36  25 S17G24    29.97F
MATTOON        MOSUNNY   70  40  33 S15G22    29.99F
$$

ILZ079-100>102-012200-
SOUTHWEST ILLINOIS

CITY           SKY/WX    TMP DP  RH WIND       PRES   REMARKS
CAHOKIA*       MOSUNNY   77  38  24 SE18G29   29.92F
$$

ILZ064>066-069>071-074>076-080>082-084>086-088>090-092>094-012200-
SOUTH-CENTRAL ILLINOIS

CITY           SKY/WX    TMP DP  RH WIND       PRES   REMARKS
CARBONDALE     MOSUNNY   76  37  24 SE13      29.96F
MARION         PTSUNNY   77  34  20 S17       29.99F
$$

ILZ067-068-072-073-078-083-087-091-012200-
SOUTHEAST ILLINOIS

CITY           SKY/WX    TMP DP  RH WIND       PRES   REMARKS
$$

ABBREVIATIONS USED IN REMARKS
   TC - TEMPERATURE IN CELSIUS
  WCI - WIND CHILL INDEX
   HX - HEAT INDEX
  VSB - VISIBILITY
$$



USA.gov is the U.S. government's official web portal to all federal, state and local government web resources and services.